GLOBAL-32

Satellite information

Favourite Embed

Satellite Type and Status

PAYLOADIN ORBIT

Key statistics

Satellite GLOBAL-32 at a glance.

Uptime

194

Days in orbit

Revolutions

≈ 15.4

Per day

Orbit

LEO

Low Earth Orbit

Inclination

59.0

Latest

Satellite identification and parameters

Extended collection of information and parameters for GLOBAL-32.

Object identification

Identified? True

Debris? False

Object name: GLOBAL-32

International designator: 2025-118B

Object number (NORAD): 64231

Object ID (CCSDS): 64231

Country: UNITED STATES OF AMERICA (US)

Current information (Y/N): Y

RCS size: LARGE

Orbital parameters

Period: 93.694 minutes

Inclination: 58.9935 deg

SMA: 6833.373 km

Apoapsis: 468.455 km

Periapsis: 442.021 km

RAAN: 167.8444 deg

Eccentricy: 0.00193418

Argument of periapsis: 137.4761 deg

Mean anomaly: 222.7816 deg

Mean motion: 15.36915918 rev/day

Mean motion (dot): 0.00018825 rev/day2

B* drag term: 0.00052130809 1/REarth

Two-line elements (TLE)

Creation date: Dec. 12, 2025, 10:14 a.m.

Reference frame: TEME

Reference center: EARTH

Epoch: Dec. 12, 2025, 5:09 a.m. UTC

TLE line 0: 0 GLOBAL-32

TLE line 1: 1 64231U 25118B 25346.21499975 .00018825 00000-0 52131-3 0 9998

TLE line 2: 2 64231 58.9935 167.8444 0019342 137.4761 222.7816 15.36915918 29477

Live tracking on map

Real-time ground track for satellite GLOBAL-32.

In-orbit conjunctions

There are no conjunctions computed for GLOBAL-32, at the moment. Check back to stay up to date, as we update our databases every day.

Go to all conjunctions

Associated space launch

2nd of the BlackSky Gen-3 high resolution Earth-imaging satellites.

GLOBAL-32 was lifted into orbit during the mission ‘Electron | Full Stream Ahead (BlackSky Gen-3 2)’, on board a Electron space rocket.

The launch took place on June 2, 2025, 11:57 p.m. from Rocket Lab Launch Complex 1B.

For more information about the launch, click the button.

Launch to space Electron | Full Stream Ahead (BlackSky Gen-3 2)
Electron | Full Stream Ahead (BlackSky Gen-3 2)

Agency: BlackSky

Status: Launch Successful

Launch date: June 2, 2025, 11:57 p.m. UTC

Rocket: Electron

Launch pad: Rocket Lab Launch Complex 1B

Location: Rocket Lab Launch Complex 1, Mahia Peninsula, New Zealand

...

Latest news about this satellite

News about space launch
Rocket Lab launches BlackSky satellite

A Rocket Lab Electron successfully placed a BlackSky high-resolution imaging satellite into orbit on a June 2 launch. The post Rocket Lab launches BlackSky satellite appeared first on SpaceNews.

News about space launch
Launch Roundup: Falcon 9 to launch crewed mission, Rocket Lab to launch 65th Electron

SpaceX continues to dominate the launch manifest with five missions this week, including a crewed… The post Launch Roundup: Falcon 9 to launch crewed mission, Rocket Lab to launch 65th Electron appeared first on NASASpaceFlight.com.

News about space launch
Rocket Lab to launch BlackSky’s next Gen-3 satellite on Electron rocket from New Zealand

The mission will be Rocket Lab’s seventh Electron rocket launch of the year and its second in 2025 in support of BlackSky. Teams are targeting liftoff from Mahia, New Zealand at 11:57 a.m. NZT on June 3 (7:57 p.m. EDT, 2357 UTC on June 2).


Newsletter sign-up

Weekly statistics, charts and insights to help you stay on top of the space industry.